FORMOSAT-3 FM6

Last updated on Tue Mar 15 2022 00:02:21 GMT+0000 (Coordinated Universal Time)

1 29047U 06011A 22073.55360281 .00000245 00000+0 11181-3 0 9999 2 29047 71.9762 253.5560 0048993 45.2596 315.2511 14.28917592832005

Satellite not in orbit

FORMOSAT-3 FM6